User: anonymous   Login
Location: ????????
(55.3939°N, 37.4780°E)
Time: 15:10:44
(UTC+00:00)
Language:

Cosmos 371 Rocket - Orbit

View from above orbital plane
View from above orbital plane
View from above satellite
View from above satellite

Ground track
Ground track

The orbit is defined by the following mean orbital elements,

1 04579U          26160.10296877 +.00000000 +00000-0 +90143-4 0 00004
2 04579  74.0024 290.2854 0010559 218.7221 141.3191 14.63692019    08
Epoch (UTC): 09 June 2026 02:28:16
Eccentricity: 0.0010559
inclination: 74.0024°
perigee height: 674 km
apogee height: 689 km
right ascension of ascending node: 290.2854°
argument of perigee: 218.7221°
revolutions per day: 14.63692019
mean anomaly at epoch: 141.3191°

The dashed part of the orbit path shows where the satellite is in the earth's shadow,  

DLR